GW5833 Weather Reports


time (UTC)temp
C
wind
direction
speed
KPH
gust
KPH
rain 1hr
cm
rain 24hr
cm
rain mn
cm
humidity
%
barometer
mb
20260508064919 15 271 1.6 4.8 0.00 0.00 0.00 17 1018.8
20260508064416 15 259 0.0 4.8 0.00 0.00 0.00 17 1019.1
20260508063914 14 269 3.2 3.2 0.00 0.00 0.00 18 1018.9
20260508063412 14 32 0.0 0.0 0.00 0.00 0.00 17 1019.2
20260508062909 14 332 3.2 3.2 0.00 0.00 0.00 18 1018.9
20260508062407 14 265 0.0 3.2 0.00 0.00 0.00 18 1018.9
20260508061903 15 50 0.0 0.0 0.00 0.00 0.00 18 1019.1
20260508061401 15 218 0.0 3.2 0.00 0.00 0.00 17 1018.8
20260508060857 14 276 3.2 3.2 0.00 0.00 0.00 17 1018.8
20260508060350 15 116 3.2 3.2 0.00 0.00 0.00 18 1018.8
20260508055849 13 327 3.2 4.8 0.00 0.00 0.00 19 1018.7
20260508055347 13 293 3.2 3.2 0.00 0.00 0.00 19 1018.7
20260508054843 15 302 0.0 3.2 0.00 0.00 0.00 19 1018.8
20260508054341 13 336 0.0 3.2 0.00 0.00 0.00 19 1018.9
20260508053837 14 37 0.0 3.2 0.00 0.00 0.00 19 1018.8
20260508053335 13 327 3.2 3.2 0.00 0.00 0.00 18 1019.1
20260508052832 13 31 0.0 4.8 0.00 0.00 0.00 20 1019.2
20260508052330 13 113 0.0 1.6 0.00 0.00 0.00 20 1018.8
20260508051826 13 130 0.0 0.0 0.00 0.00 0.00 20 1018.9
20260508051321 13 319 0.0 1.6 0.00 0.00 0.00 19 1018.9
20260508050818 13 324 1.6 3.2 0.00 0.00 0.00 20 1019.1
20260508050315 14 34 0.0 0.0 0.00 0.00 0.00 20 1019.1
20260508045811 14 347 0.0 3.2 0.00 0.00 0.00 19 1019.1
20260508045309 14 7 0.0 1.6 0.00 0.00 0.00 19 1019.3
20260508044806 14 327 1.6 3.2 0.00 0.00 0.00 19 1018.9
20260508044302 15 306 0.0 0.0 0.00 0.00 0.00 19 1018.8
20260508043758 15 343 1.6 3.2 0.00 0.00 0.00 19 1018.8
20260508043256 14 311 1.6 3.2 0.00 0.00 0.00 20 1018.8
20260508042752 14 60 0.0 0.0 0.00 0.00 0.00 19 1019.1
20260508042250 15 323 0.0 0.0 0.00 0.00 0.00 19 1018.8
20260508041746 16 50 0.0 3.2 0.00 0.00 0.00 18 1018.9
20260508041243 15 337 1.6 4.8 0.00 0.00 0.00 18 1019.1
20260508040740 15 44 0.0 1.6 0.00 0.00 0.00 18 1018.9
20260508040237 15 325 0.0 1.6 0.00 0.00 0.00 17 1018.9
20260508035734 14 29 3.2 3.2 0.00 0.00 0.00 18 1018.9
20260508035232 15 94 1.6 1.6 0.00 0.00 0.00 18 1018.9
20260508034728 15 293 0.0 0.0 0.00 0.00 0.00 18 1018.8
20260508034226 15 212 0.0 3.2 0.00 0.00 0.00 17 1018.5
20260508033722 15 49 0.0 0.0 0.00 0.00 0.00 19 1018.7
20260508033221 15 0 1.6 3.2 0.00 0.00 0.00 19 1018.5
20260508032718 15 126 0.0 1.6 0.00 0.00 0.00 20 1018.3
20260508032215 15 29 0.0 1.6 0.00 0.00 0.00 19 1018.2
20260508031712 15 32 0.0 1.6 0.00 0.00 0.00 19 1017.9
20260508031208 15 89 0.0 1.6 0.00 0.00 0.00 18 1018.0
20260508030704 16 37 0.0 0.0 0.00 0.00 0.00 17 1017.7
20260508030202 16 5 0.0 1.6 0.00 0.00 0.00 17 1017.7
20260508025658 17 76 0.0 3.2 0.00 0.00 0.00 17 1017.7
20260508025155 17 22 0.0 3.2 0.00 0.00 0.00 16 1017.6
20260508024651 17 17 1.6 4.8 0.00 0.00 0.00 16 1017.9
20260508024149 17 325 3.2 3.2 0.00 0.00 0.00 17 1017.7
20260508023645 16 24 0.0 3.2 0.00 0.00 0.00 17 1017.5
20260508023143 16 88 0.0 0.0 0.00 0.00 0.00 18 1017.3
20260508022638 17 50 0.0 3.2 0.00 0.00 0.00 17 1017.6
20260508022135 17 66 0.0 1.6 0.00 0.00 0.00 17 1017.5
20260508021631 18 64 1.6 3.2 0.00 0.00 0.00 16 1017.4
20260508021127 18 66 3.2 4.8 0.00 0.00 0.00 16 1017.2
20260508020625 18 68 1.6 3.2 0.00 0.00 0.00 16 1017.4
20260508020123 19 92 3.2 4.8 0.00 0.00 0.00 16 1017.2
20260508015620 20 55 4.8 4.8 0.00 0.00 0.00 15 1017.4
20260508015116 20 85 3.2 4.8 0.00 0.00 0.00 15 1017.2
20260508014613 21 80 1.6 4.8 0.00 0.00 0.00 14 1017.0
20260508014109 21 84 3.2 6.4 0.00 0.00 0.00 14 1017.0
20260508013605 21 92 3.2 8.0 0.00 0.00 0.00 14 1017.2
20260508013102 21 74 3.2 6.4 0.00 0.00 0.00 13 1016.8
20260508012600 21 23 3.2 6.4 0.00 0.00 0.00 13 1017.0
20260508012057 22 56 6.4 12.9 0.00 0.00 0.00 13 1016.9
20260508011555 22 69 3.2 6.4 0.00 0.00 0.00 13 1016.9
20260508011052 21 52 4.8 8.0 0.00 0.00 0.00 12 1016.9
20260508010549 22 68 4.8 6.4 0.00 0.00 0.00 12 1016.9
20260508010047 22 57 4.8 8.0 0.00 0.00 0.00 12 1016.9
20260508005543 22 132 8.0 11.3 0.00 0.00 0.00 12 1016.8
20260508005040 22 52 0.0 4.8 0.00 0.00 0.00 11 1016.8
20260508004535 22 72 6.4 6.4 0.00 0.00 0.00 12 1016.8
20260508004032 23 84 3.2 9.7 0.00 0.00 0.00 12 1016.8
20260508003529 23 150 9.7 9.7 0.00 0.00 0.00 11 1016.8
20260508003027 23 193 0.0 4.8 0.00 0.00 0.00 12 1016.8
20260508002522 23 122 0.0 11.3 0.00 0.00 0.00 11 1017.0
20260508002020 23 150 4.8 6.4 0.00 0.00 0.00 11 1016.9
20260508001516 23 190 1.6 4.8 0.00 0.00 0.00 11 1017.2
20260508001012 23 237 0.0 6.4 0.00 0.00 0.00 11 1017.2
20260508000508 22 120 4.8 6.4 0.00 0.00 0.00 11 1017.0
20260508000006 22 131 6.4 8.0 0.00 0.00 0.00 11 1016.9
20260507235502 22 110 8.0 9.7 0.00 0.00 0.00 11 1016.9
20260507235000 22 322 4.8 12.9 0.00 0.00 0.00 11 1016.9
20260507234456 22 287 6.4 6.4 0.00 0.00 0.00 11 1017.0
20260507233953 23 204 4.8 8.0 0.00 0.00 0.00 11 1017.2
20260507233449 23 146 3.2 11.3 0.00 0.00 0.00 11 1017.0
20260507232948 23 93 8.0 12.9 0.00 0.00 0.00 11 1017.4
20260507232444 22 245 3.2 8.0 0.00 0.00 0.00 11 1017.3
20260507231941 22 287 1.6 12.9 0.00 0.00 0.00 12 1017.4
20260507231437 23 94 3.2 16.1 0.00 0.00 0.00 11 1017.5
20260507230934 23 169 3.2 6.4 0.00 0.00 0.00 11 1017.5
20260507230432 22 189 0.0 6.4 0.00 0.00 0.00 11 1017.5
20260507225932 22 253 4.8 8.0 0.00 0.00 0.00 11 1017.6
20260507225428 22 181 0.0 6.4 0.00 0.00 0.00 11 1017.7
20260507224925 23 128 4.8 6.4 0.00 0.00 0.00 11 1017.7
20260507224420 22 175 0.0 14.5 0.00 0.00 0.00 11 1018.0
20260507223917 22 124 6.4 6.4 0.00 0.00 0.00 12 1017.9
20260507223414 22 250 9.7 9.7 0.00 0.00 0.00 11 1017.9
20260507222911 22 212 3.2 4.8 0.00 0.00 0.00 11 1017.9
20260507222408 22 222 3.2 11.3 0.00 0.00 0.00 11 1018.2
20260507221904 23 172 3.2 12.9 0.00 0.00 0.00 11 1018.1
20260507221401 23 350 1.6 6.4 0.00 0.00 0.00 11 1018.1
20260507220856 22 187 4.8 17.7 0.00 0.00 0.00 9 1018.2
20260507220355 22 224 3.2 8.0 0.00 0.00 0.00 13 1018.1
20260507215851 22 244 4.8 8.0 0.00 0.00 0.00 12 1018.3
20260507215348 22 149 9.7 9.7 0.00 0.00 0.00 11 1018.6
20260507214845 22 113 4.8 16.1 0.00 0.00 0.00 12 1018.6
20260507214343 22 93 1.6 12.9 0.00 0.00 0.00 12 1018.3
20260507213843 22 121 9.7 9.7 0.00 0.00 0.00 12 1018.9
20260507213341 21 40 4.8 6.4 0.00 0.00 0.00 13 1018.9
20260507212837 21 137 8.0 12.9 0.00 0.00 0.00 14 1018.8
20260507212333 21 12 0.0 9.7 0.00 0.00 0.00 14 1018.9
20260507211830 22 105 3.2 9.7 0.00 0.00 0.00 13 1019.5
20260507211327 21 149 6.4 8.0 0.00 0.00 0.00 13 1019.3
20260507210823 21 148 6.4 12.9 0.00 0.00 0.00 13 1019.2
20260507210321 21 227 4.8 6.4 0.00 0.00 0.00 13 1019.4
20260507205817 22 175 3.2 8.0 0.00 0.00 0.00 14 1019.4
20260507205314 21 197 6.4 8.0 0.00 0.00 0.00 14 1019.5
20260507204810 21 138 8.0 8.0 0.00 0.00 0.00 14 1019.8
20260507204308 21 141 3.2 19.3 0.00 0.00 0.00 14 1019.8
20260507203806 21 187 1.6 8.0 0.00 0.00 0.00 15 1019.7
20260507203303 21 133 6.4 22.5 0.00 0.00 0.00 16 1019.9
20260507202759 20 114 6.4 8.0 0.00 0.00 0.00 16 1019.8
20260507202255 20 155 4.8 17.7 0.00 0.00 0.00 17 1020.0
20260507201750 20 130 0.0 8.0 0.00 0.00 0.00 18 1020.4
20260507201247 20 205 6.4 11.3 0.00 0.00 0.00 18 1020.3
20260507200743 20 213 4.8 11.3 0.00 0.00 0.00 20 1020.1
20260507200239 20 163 0.0 6.4 0.00 0.00 0.00 20 1020.1
20260507195735 19 137 3.2 12.9 0.00 0.00 0.00 20 1020.4
20260507195233 19 243 3.2 9.7 0.00 0.00 0.00 21 1020.3
20260507194730 18 155 4.8 14.5 0.00 0.00 0.00 22 1020.6
20260507194226 18 240 3.2 9.7 0.00 0.00 0.00 22 1020.5
20260507193723 19 158 6.4 11.3 0.00 0.00 0.00 22 1020.6
20260507193214 19 176 1.6 6.4 0.00 0.00 0.00 22 1020.7
20260507192710 18 115 11.3 11.3 0.00 0.00 0.00 23 1021.0
20260507192207 18 201 3.2 12.9 0.00 0.00 0.00 23 1021.0
20260507191703 17 190 6.4 6.4 0.00 0.00 0.00 23 1021.1
20260507191201 17 74 3.2 9.7 0.00 0.00 0.00 23 1021.2
20260507190657 18 65 3.2 9.7 0.00 0.00 0.00 23 1021.5
20260507190155 17 84 4.8 6.4 0.00 0.00 0.00 23 1021.5
20260507185653 18 194 1.6 8.0 0.00 0.00 0.00 22 1021.2
20260507185149 17 210 3.2 8.0 0.00 0.00 0.00 24 1021.5
20260507184647 17 158 3.2 8.0 0.00 0.00 0.00 23 1021.6
20260507184145 17 191 9.7 11.3 0.00 0.00 0.00 23 1021.5
20260507183641 17 107 11.3 16.1 0.00 0.00 0.00 24 1021.5
20260507183138 17 50 3.2 14.5 0.00 0.00 0.00 24 1021.8
20260507182635 16 190 0.0 11.3 0.00 0.00 0.00 24 1022.1
20260507182131 17 200 3.2 16.1 0.00 0.00 0.00 24 1022.3
20260507181628 17 53 4.8 6.4 0.00 0.00 0.00 24 1022.1
20260507181124 17 177 4.8 12.9 0.00 0.00 0.00 24 1021.8
20260507180620 16 328 0.0 3.2 0.00 0.00 0.00 26 1021.9
20260507180118 16 137 9.7 11.3 0.00 0.00 0.00 26 1022.3
20260507175613 16 160 1.6 8.0 0.00 0.00 0.00 27 1022.5
20260507175111 16 133 6.4 6.4 0.00 0.00 0.00 28 1022.6
20260507174608 16 205 1.6 6.4 0.00 0.00 0.00 28 1022.3
20260507174106 16 140 1.6 11.3 0.00 0.00 0.00 30 1022.4
20260507173603 16 176 3.2 8.0 0.00 0.00 0.00 27 1022.6
20260507173100 16 336 3.2 4.8 0.00 0.00 0.00 27 1022.6
20260507172555 15 196 6.4 8.0 0.00 0.00 0.00 28 1022.4
20260507172053 15 83 4.8 9.7 0.00 0.00 0.00 27 1022.6
20260507171548 16 131 9.7 14.5 0.00 0.00 0.00 25 1022.6
20260507171045 15 213 1.6 6.4 0.00 0.00 0.00 27 1022.8
20260507170542 15 182 3.2 6.4 0.00 0.00 0.00 26 1022.9
20260507170039 14 86 3.2 9.7 0.00 0.00 0.00 26 1022.9
20260507165535 14 166 3.2 9.7 0.00 0.00 0.00 28 1022.8
20260507165031 13 75 8.0 9.7 0.00 0.00 0.00 29 1023.0
20260507164528 13 83 8.0 12.9 0.00 0.00 0.00 29 1023.1
20260507164025 13 98 3.2 9.7 0.00 0.00 0.00 28 1023.0
20260507163522 14 116 9.7 9.7 0.00 0.00 0.00 28 1023.1
20260507163020 14 228 3.2 6.4 0.00 0.00 0.00 27 1023.0
20260507162514 13 81 0.0 9.7 0.00 0.00 0.00 28 1023.0
20260507162012 13 125 8.0 9.7 0.00 0.00 0.00 30 1023.4
20260507161508 13 52 1.6 6.4 0.00 0.00 0.00 30 1023.2
20260507161005 12 141 1.6 6.4 0.00 0.00 0.00 34 1023.5
20260507160500 12 131 6.4 16.1 0.00 0.00 0.00 33 1023.2
20260507155956 13 138 6.4 11.3 0.00 0.00 0.00 32 1023.0
20260507155453 13 127 3.2 6.4 0.00 0.00 0.00 32 1023.2
20260507154950 12 5 0.0 6.4 0.00 0.00 0.00 34 1023.1
20260507154446 12 125 4.8 9.7 0.00 0.00 0.00 32 1023.5
20260507153943 12 119 0.0 8.0 0.00 0.00 0.00 32 1023.4
20260507153441 12 95 3.2 3.2 0.00 0.00 0.00 33 1023.2
20260507152936 12 325 0.0 6.4 0.00 0.00 0.00 33 1023.5
20260507152433 12 130 1.6 4.8 0.00 0.00 0.00 33 1023.2
20260507151929 11 184 0.0 3.2 0.00 0.00 0.00 35 1023.4
20260507151426 11 177 4.8 4.8 0.00 0.00 0.00 36 1023.4
20260507150922 11 121 1.6 4.8 0.00 0.00 0.00 38 1023.5
20260507150419 10 88 4.8 8.0 0.00 0.00 0.00 38 1023.5
20260507145916 11 100 1.6 4.8 0.00 0.00 0.00 38 1023.4
20260507145412 11 140 3.2 4.8 0.00 0.00 0.00 38 1023.6
20260507144909 10 173 0.0 4.8 0.00 0.00 0.00 41 1023.6
20260507144406 9 101 0.0 3.2 0.00 0.00 0.00 44 1023.7
20260507143902 10 109 6.4 6.4 0.00 0.00 0.00 42 1023.4
20260507143400 10 122 0.0 4.8 0.00 0.00 0.00 41 1023.6
20260507142856 9 37 0.0 4.8 0.00 0.00 0.00 44 1023.6
20260507142352 9 229 0.0 3.2 0.00 0.00 0.00 43 1023.5
20260507141849 8 336 1.6 4.8 0.00 0.00 0.00 45 1023.5
20260507141346 8 67 3.2 4.8 0.00 0.00 0.00 45 1023.6
20260507140842 7 343 3.2 4.8 0.00 0.00 0.00 45 1023.7
20260507140339 7 91 1.6 3.2 0.00 0.00 0.00 45 1023.7
20260507135837 5 55 0.0 4.8 0.00 0.00 0.00 49 1023.5
20260507135333 3 83 3.2 4.8 0.00 0.00 0.00 55 1023.6
20260507134831 2 43 1.6 3.2 0.00 0.00 0.00 58 1023.6
20260507134327 2 36 1.6 3.2 0.00 0.00 0.00 61 1023.5
20260507133823 2 52 4.8 4.8 0.00 0.00 0.00 61 1023.5
20260507133319 2 69 0.0 3.2 0.00 0.00 0.00 59 1023.5
20260507132818 3 58 3.2 4.8 0.00 0.00 0.00 59 1023.4
20260507132313 3 73 3.2 6.4 0.00 0.00 0.00 58 1023.2
20260507131811 2 53 4.8 4.8 0.00 0.00 0.00 58 1023.2
20260507131308 2 57 3.2 3.2 0.00 0.00 0.00 59 1023.2
20260507130804 2 321 0.0 3.2 0.00 0.00 0.00 56 1022.9
20260507130302 3 76 0.0 3.2 0.00 0.00 0.00 53 1023.1
20260507125800 2 62 1.6 3.2 0.00 0.00 0.00 53 1023.2
20260507125258 2 75 1.6 3.2 0.00 0.00 0.00 51 1023.2
20260507124754 2 53 3.2 4.8 0.00 0.00 0.00 53 1023.1
20260507124251 2 28 1.6 3.2 0.00 0.00 0.00 53 1022.9
20260507123749 2 13 0.0 3.2 0.00 0.00 0.00 53 1023.0
20260507123247 2 69 3.2 3.2 0.00 0.00 0.00 53 1022.9
20260507122742 2 38 3.2 4.8 0.00 0.00 0.00 51 1022.9
20260507122238 2 55 3.2 3.2 0.00 0.00 0.00 51 1022.8
20260507121734 2 99 1.6 3.2 0.00 0.00 0.00 50 1022.9
20260507121230 2 95 0.0 3.2 0.00 0.00 0.00 50 1023.0
20260507120726 2 296 0.0 3.2 0.00 0.00 0.00 51 1022.8
20260507120223 2 91 3.2 3.2 0.00 0.00 0.00 51 1022.8
20260507115719 2 98 0.0 3.2 0.00 0.00 0.00 49 1022.8
20260507115215 3 199 1.6 3.2 0.00 0.00 0.00 47 1022.8
20260507114711 2 77 1.6 3.2 0.00 0.00 0.00 49 1022.9
20260507114209 2 6 1.6 4.8 0.00 0.00 0.00 50 1022.9
20260507113706 3 32 1.6 1.6 0.00 0.00 0.00 49 1022.6
20260507113202 3 84 1.6 3.2 0.00 0.00 0.00 49 1022.8
20260507112700 3 197 0.0 3.2 0.00 0.00 0.00 46 1022.8
20260507112157 3 102 3.2 3.2 0.00 0.00 0.00 46 1022.6
20260507111654 4 89 0.0 6.4 0.00 0.00 0.00 45 1022.9
20260507111151 3 80 3.2 3.2 0.00 0.00 0.00 47 1022.9
20260507110647 3 65 4.8 4.8 0.00 0.00 0.00 44 1022.8
20260507110144 3 66 0.0 1.6 0.00 0.00 0.00 44 1022.9
20260507105641 3 73 0.0 1.6 0.00 0.00 0.00 45 1022.9
20260507105136 3 89 0.0 1.6 0.00 0.00 0.00 45 1023.1
20260507104634 3 0 0.0 1.6 0.00 0.00 0.00 45 1023.0
20260507104130 3 38 0.0 1.6 0.00 0.00 0.00 44 1023.0
20260507103627 3 44 0.0 3.2 0.00 0.00 0.00 43 1022.9
20260507103124 3 185 0.0 3.2 0.00 0.00 0.00 42 1022.8
20260507102620 4 326 0.0 1.6 0.00 0.00 0.00 41 1023.0
20260507102116 4 73 0.0 1.6 0.00 0.00 0.00 39 1023.1
20260507101612 5 102 0.0 1.6 0.00 0.00 0.00 38 1023.0
20260507101108 4 89 4.8 4.8 0.00 0.00 0.00 37 1023.0
20260507100605 5 74 3.2 3.2 0.00 0.00 0.00 38 1022.9
20260507100104 5 66 0.0 1.6 0.00 0.00 0.00 36 1022.6
20260507095601 5 89 0.0 1.6 0.00 0.00 0.00 37 1023.0
20260507095058 5 22 0.0 0.0 0.00 0.00 0.00 37 1022.9
20260507094554 5 269 0.0 1.6 0.00 0.00 0.00 36 1022.9
20260507094051 6 92 1.6 4.8 0.00 0.00 0.00 36 1022.9
20260507093548 5 6 0.0 1.6 0.00 0.00 0.00 35 1022.9
20260507093047 6 135 0.0 0.0 0.00 0.00 0.00 34 1022.5
20260507092543 7 89 1.6 3.2 0.00 0.00 0.00 32 1022.8
20260507092040 6 81 3.2 3.2 0.00 0.00 0.00 34 1022.9
20260507091537 6 66 0.0 0.0 0.00 0.00 0.00 35 1022.8
20260507091033 6 58 0.0 3.2 0.00 0.00 0.00 33 1023.0
20260507090528 7 346 3.2 3.2 0.00 0.00 0.00 31 1022.6
20260507090026 6 4 1.6 3.2 0.00 0.00 0.00 33 1022.8
20260507085523 6 75 0.0 3.2 0.00 0.00 0.00 33 1022.8
20260507085019 6 82 1.6 3.2 0.00 0.00 0.00 32 1022.6
20260507084516 6 51 0.0 1.6 0.00 0.00 0.00 33 1022.8
20260507084013 7 53 3.2 4.8 0.00 0.00 0.00 32 1022.5
20260507083509 7 48 0.0 3.2 0.00 0.00 0.00 31 1022.6
20260507083006 8 75 1.6 4.8 0.00 0.00 0.00 29 1022.5
20260507082502 8 191 0.0 3.2 0.00 0.00 0.00 28 1022.5
20260507081958 8 231 3.2 4.8 0.00 0.00 0.00 29 1022.4
20260507081455 9 253 0.0 3.2 0.00 0.00 0.00 27 1022.4
20260507080952 9 233 6.4 8.0 0.00 0.00 0.00 27 1022.4
20260507080448 9 240 6.4 6.4 0.00 0.00 0.00 27 1022.6
20260507075943 9 295 3.2 6.4 0.00 0.00 0.00 27 1022.6
20260507075440 9 259 6.4 8.0 0.00 0.00 0.00 27 1022.6
20260507074936 9 263 3.2 6.4 0.00 0.00 0.00 27 1022.5
20260507074433 10 259 3.2 6.4 0.00 0.00 0.00 26 1022.9
20260507073931 10 257 3.2 6.4 0.00 0.00 0.00 26 1022.5
20260507073427 10 278 3.2 6.4 0.00 0.00 0.00 26 1022.5
20260507072924 10 256 6.4 9.7 0.00 0.00 0.00 25 1022.5
20260507072422 10 258 6.4 9.7 0.00 0.00 0.00 25 1022.6
20260507071920 10 269 8.0 14.5 0.00 0.00 0.00 25 1022.6
20260507071416 10 265 9.7 12.9 0.00 0.00 0.00 25 1022.2
20260507070912 10 235 3.2 9.7 0.00 0.00 0.00 25 1022.4
20260507070410 10 253 6.4 9.7 0.00 0.00 0.00 25 1022.3
20260507065907 10 255 9.7 11.3 0.00 0.00 0.00 25 1022.3
20260507065403 10 245 8.0 16.1 0.00 0.00 0.00 25 1022.1